Flag Weather past 2 weeks in Papeete, Tahiti, French Polynesia

Now
84 °F

Partly sunny.


Feels Like: 90 °F
Forecast: 78 / 85 °F
Wind: 7 mph from South

Location: Tahiti-Faaa

Current Time: Nov 26, 2014 at 11:54:50 AM

Latest Report: Nov 26, 2014 at 11:00 AM


Visibility: N/A

Pressure: 29.80 "Hg

Humidity: 66%

Dew point: 72 °F

Location of PapeeteLocation

Historic Weather in Papeete — Graph

°F

Papeete temperature yesterday

Maximum temperature yesterday: 88 °F (at 1:30 PM)
Minimum temperature yesterday: 77 °F (at 3:30 AM)
Average temperature yesterday: 82 °F

Past Weeks' High & Low Weather Summary

 TemperatureHumidityPressure
High88 °F (Nov 15, 1:30 PM)89% (Nov 15, 4:00 AM)29.98 "Hg (Nov 15, 4:00 AM)
Low73 °F (Nov 12, 3:30 AM)52% (Nov 11, 1:00 PM)29.74 "Hg (Nov 25, 3:30 PM)
Average81 °F71%29.88 "Hg
* Reported Nov 11 10:00 AM — Nov 26 10:30 AM, Papeete, Weather by CustomWeather, © 2014

Note: Actual official high and low records may vary slightly from our data, if they occured in-between our weather recording intervals... More about our weather records

Advertising

Papeete weather history for previous 24 hours

 ConditionsComfort  
Time TempWeatherWind HumidityBarometerVisibility
10:30 AM
Nov 26
84 °FScattered clouds.5 mph70%29.80 "HgN/A
10:00 AM84 °FPartly sunny.6 mph70%29.80 "HgN/A
9:30 AM84 °FPartly sunny.8 mph70%29.80 "HgN/A
9:00 AM84 °FPartly sunny.3 mph70%29.80 "HgN/A
8:30 AM84 °FPartly sunny.5 mph70%29.83 "HgN/A
8:00 AM84 °FScattered clouds.5 mph70%29.83 "HgN/A
7:30 AM84 °FScattered clouds.2 mph70%29.83 "HgN/A
7:00 AM81 °FScattered clouds.3 mph79%29.80 "HgN/A
6:30 AM81 °FScattered clouds.No wind74%29.80 "HgN/A
6:00 AM79 °FScattered clouds.3 mph79%29.80 "HgN/A
5:30 AM79 °FScattered clouds.2 mph79%29.77 "HgN/A
5:00 AM79 °FPassing clouds.No wind79%29.77 "HgN/A
4:30 AM79 °FPartly cloudy.2 mph84%29.77 "HgN/A
4:00 AM79 °FPartly cloudy.2 mph84%29.77 "HgN/A
3:30 AM79 °FPartly cloudy.3 mph79%29.77 "HgN/A
3:00 AM79 °FPassing clouds.2 mph79%29.74 "HgN/A
2:30 AM79 °FPassing clouds.6 mph79%29.74 "HgN/A
2:00 AM79 °FPassing clouds.6 mph79%29.74 "HgN/A
1:30 AM79 °FPassing clouds.7 mph79%29.77 "HgN/A
1:00 AM81 °FPassing clouds.7 mph74%29.77 "HgN/A
12:30 AM79 °FPassing clouds.6 mph79%29.77 "HgN/A
12:00 AM79 °FPassing clouds.3 mph79%29.80 "HgN/A
11:30 PM
Nov 25
81 °FPassing clouds.5 mph74%29.80 "HgN/A
11:00 PM81 °FPassing clouds.6 mph74%29.80 "HgN/A
10:30 PM81 °FPassing clouds.6 mph74%29.83 "HgN/A
10:00 PM81 °FPassing clouds.3 mph74%29.83 "HgN/A
9:30 PM81 °FPassing clouds.3 mph74%29.83 "HgN/A
9:00 PM81 °FPassing clouds.5 mph74%29.83 "HgN/A
8:30 PM82 °FPassing clouds.2 mph70%29.83 "HgN/A
8:00 PM82 °FPartly cloudy.6 mph74%29.83 "HgN/A
7:30 PM82 °FPartly cloudy.3 mph70%29.83 "HgN/A
7:00 PM82 °FPartly cloudy.5 mph70%29.80 "HgN/A
6:30 PM82 °FPartly cloudy.12 mph70%29.80 "HgN/A
6:00 PM84 °FPartly sunny.12 mph66%29.80 "HgN/A
5:30 PM84 °FPartly sunny.13 mph66%29.77 "HgN/A
5:00 PM84 °FPartly sunny.12 mph66%29.77 "HgN/A
4:30 PM86 °FPartly sunny.6 mph66%29.77 "HgN/A
4:00 PM86 °FPartly sunny.3 mph66%29.77 "HgN/A
3:30 PM86 °FPartly sunny.5 mph66%29.74 "HgN/A
3:00 PM86 °FPartly sunny.3 mph66%29.77 "HgN/A
2:30 PM88 °FPartly sunny.6 mph66%29.77 "HgN/A
2:00 PM88 °FScattered clouds.16 mph62%29.77 "HgN/A
1:30 PM88 °FScattered clouds.16 mph59%29.77 "HgN/A
1:00 PM86 °FPartly sunny.12 mph62%29.77 "HgN/A
12:30 PM86 °FPartly sunny.13 mph62%29.77 "HgN/A
12:00 PM86 °FPartly sunny.7 mph66%29.80 "HgN/A
11:30 AM86 °FPartly sunny.12 mph66%29.80 "HgN/A
11:00 AM84 °FPartly sunny.13 mph66%29.80 "HgN/A
Weather by CustomWeather, © 2014

See weather overviewHow to use our weather pages